Time,TemperatureF,DewpointF,PressureIn,WindDirection,WindDirectionDegrees,WindSpeedMPH,WindSpeedGustMPH,Humidity,HourlyPrecipIn,Conditions,Clouds,dailyrainin,SoftwareType,DateUTC
2013-06-13 00:03:00,76.8,72.0,29.91,South,188,0.0,-999.0,86,-99.99,,,0.00,weatherlink.com 1.10,2013-06-13 05:03:00,
2013-06-13 00:18:00,76.4,72.0,29.91,South,188,0.0,-999.0,86,-99.99,,,0.00,weatherlink.com 1.10,2013-06-13 05:18:00,
2013-06-13 00:33:00,76.2,72.0,29.91,South,188,0.0,-999.0,87,-99.99,,,0.00,weatherlink.com 1.10,2013-06-13 05:33:00,
2013-06-13 00:48:00,76.5,72.0,29.91,South,188,0.0,-999.0,86,-99.99,,,0.00,weatherlink.com 1.10,2013-06-13 05:48:00,
2013-06-13 01:03:00,76.2,72.0,29.91,South,188,0.0,-999.0,87,-99.99,,,0.00,weatherlink.com 1.10,2013-06-13 06:03:00,
2013-06-13 01:19:00,76.0,72.0,29.91,South,188,0.0,-999.0,86,-99.99,,,0.00,weatherlink.com 1.10,2013-06-13 06:19:00,
2013-06-13 01:33:00,75.8,72.0,29.91,South,188,0.0,-999.0,87,-99.99,,,0.00,weatherlink.com 1.10,2013-06-13 06:33:00,
2013-06-13 01:52:00,75.8,72.0,29.90,South,188,0.0,-999.0,87,-99.99,,,0.00,weatherlink.com 1.10,2013-06-13 06:52:00,
2013-06-13 02:03:00,75.8,72.0,29.90,South,188,0.0,-999.0,87,-99.99,,,0.00,weatherlink.com 1.10,2013-06-13 07:03:00,
2013-06-13 02:18:00,75.6,72.0,29.90,South,188,0.0,-999.0,88,-99.99,,,0.00,weatherlink.com 1.10,2013-06-13 07:18:00,
2013-06-13 02:33:00,75.3,72.0,29.90,South,188,0.0,-999.0,88,-99.99,,,0.00,weatherlink.com 1.10,2013-06-13 07:33:00,
2013-06-13 02:48:00,75.1,72.0,29.90,South,188,0.0,-999.0,89,-99.99,,,0.00,weatherlink.com 1.10,2013-06-13 07:48:00,
2013-06-13 03:05:00,75.2,72.0,29.90,South,188,0.0,-999.0,89,-99.99,,,0.00,weatherlink.com 1.10,2013-06-13 08:05:00,
2013-06-13 03:18:00,75.5,72.0,29.89,South,188,0.0,-999.0,89,-99.99,,,0.00,weatherlink.com 1.10,2013-06-13 08:18:00,
2013-06-13 03:33:00,75.5,72.0,29.89,South,188,0.0,-999.0,88,-99.99,,,0.00,weatherlink.com 1.10,2013-06-13 08:33:00,
2013-06-13 03:48:00,75.3,72.0,29.89,South,188,0.0,-999.0,89,-99.99,,,0.00,weatherlink.com 1.10,2013-06-13 08:48:00,
2013-06-13 04:03:00,75.2,72.0,29.89,South,188,0.0,-999.0,89,-99.99,,,0.00,weatherlink.com 1.10,2013-06-13 09:03:00,
2013-06-13 04:18:00,74.9,72.0,29.89,South,188,0.0,-999.0,90,-99.99,,,0.00,weatherlink.com 1.10,2013-06-13 09:18:00,
2013-06-13 04:33:00,74.5,72.0,29.88,South,188,0.0,-999.0,90,-99.99,,,0.00,weatherlink.com 1.10,2013-06-13 09:33:00,
2013-06-13 04:48:00,74.4,71.0,29.88,South,188,0.0,-999.0,90,-99.99,,,0.00,weatherlink.com 1.10,2013-06-13 09:48:00,
2013-06-13 05:03:00,74.8,71.0,29.88,South,182,0.0,-999.0,89,-99.99,,,0.00,weatherlink.com 1.10,2013-06-13 10:03:00,
2013-06-13 05:18:00,75.0,71.0,29.89,South,175,0.0,-999.0,88,-99.99,,,0.00,weatherlink.com 1.10,2013-06-13 10:18:00,
2013-06-13 05:33:00,74.6,71.0,29.89,South,176,0.0,-999.0,89,-99.99,,,0.00,weatherlink.com 1.10,2013-06-13 10:33:00,
2013-06-13 05:49:00,73.9,71.0,29.89,South,176,0.0,-999.0,91,-99.99,,,0.00,weatherlink.com 1.10,2013-06-13 10:49:00,
2013-06-13 06:03:00,73.8,71.0,29.90,South,184,0.0,-999.0,92,-99.99,,,0.00,weatherlink.com 1.10,2013-06-13 11:03:00,
2013-06-13 06:18:00,74.1,71.0,29.90,South,190,0.0,-999.0,91,-99.99,,,0.00,weatherlink.com 1.10,2013-06-13 11:18:00,
2013-06-13 06:33:00,74.8,72.0,29.90,South,172,0.0,-999.0,90,-99.99,,,0.00,weatherlink.com 1.10,2013-06-13 11:33:00,
2013-06-13 06:48:00,75.5,72.0,29.90,SSW,200,0.0,-999.0,89,-99.99,,,0.00,weatherlink.com 1.10,2013-06-13 11:48:00,
2013-06-13 07:03:00,75.7,72.0,29.90,SSW,213,0.0,-999.0,88,-99.99,,,0.00,weatherlink.com 1.10,2013-06-13 12:03:00,
2013-06-13 07:18:00,76.3,73.0,29.90,SW,231,0.0,-999.0,88,-99.99,,,0.00,weatherlink.com 1.10,2013-06-13 12:18:00,
2013-06-13 07:33:00,76.8,73.0,29.90,South,183,0.0,-999.0,87,-99.99,,,0.00,weatherlink.com 1.10,2013-06-13 12:33:00,
2013-06-13 07:48:00,77.5,73.0,29.90,SW,219,7.0,-999.0,86,-99.99,,,0.00,weatherlink.com 1.10,2013-06-13 12:48:00,
2013-06-13 08:03:00,78.3,74.0,29.90,WSW,238,6.0,-999.0,85,-99.99,,,0.00,weatherlink.com 1.10,2013-06-13 13:03:00,
2013-06-13 08:18:00,79.2,74.0,29.90,West,270,1.0,-999.0,84,-99.99,,,0.00,weatherlink.com 1.10,2013-06-13 13:18:00,
2013-06-13 08:34:00,80.0,74.0,29.89,West,268,7.0,-999.0,82,-99.99,,,0.00,weatherlink.com 1.10,2013-06-13 13:34:00,
2013-06-13 08:48:00,80.9,74.0,29.89,WSW,238,6.0,-999.0,80,-99.99,,,0.00,weatherlink.com 1.10,2013-06-13 13:48:00,
2013-06-13 09:03:00,81.6,75.0,29.89,West,273,8.0,-999.0,79,-99.99,,,0.00,weatherlink.com 1.10,2013-06-13 14:03:00,
2013-06-13 09:18:00,82.3,74.0,29.88,SSW,211,10.0,-999.0,77,-99.99,,,0.00,weatherlink.com 1.10,2013-06-13 14:18:00,
2013-06-13 09:33:00,82.9,75.0,29.87,SW,232,5.0,-999.0,76,-99.99,,,0.00,weatherlink.com 1.10,2013-06-13 14:33:00,
2013-06-13 09:48:00,83.6,75.0,29.87,WSW,256,9.0,-999.0,74,-99.99,,,0.00,weatherlink.com 1.10,2013-06-13 14:48:00,
2013-06-13 10:03:00,83.9,74.0,29.86,SSW,194,13.0,-999.0,72,-99.99,,,0.00,weatherlink.com 1.10,2013-06-13 15:03:00,
2013-06-13 10:18:00,85.0,74.0,29.86,West,259,11.0,-999.0,69,-99.99,,,0.00,weatherlink.com 1.10,2013-06-13 15:18:00,
2013-06-13 10:33:00,85.0,74.0,29.86,WSW,244,1.0,-999.0,70,-99.99,,,0.00,weatherlink.com 1.10,2013-06-13 15:33:00,
2013-06-13 10:48:00,85.6,74.0,29.86,SW,225,6.0,-999.0,69,-99.99,,,0.00,weatherlink.com 1.10,2013-06-13 15:48:00,
2013-06-13 11:03:00,85.8,75.0,29.85,West,261,4.0,-999.0,69,-99.99,,,0.00,weatherlink.com 1.10,2013-06-13 16:03:00,
2013-06-13 11:19:00,86.0,74.0,29.84,SSW,212,7.0,-999.0,68,-99.99,,,0.00,weatherlink.com 1.10,2013-06-13 16:19:00,
2013-06-13 11:33:00,85.9,75.0,29.84,NW,316,10.0,-999.0,69,-99.99,,,0.00,weatherlink.com 1.10,2013-06-13 16:33:00,
2013-06-13 11:48:00,85.9,75.0,29.83,WSW,252,11.0,-999.0,69,-99.99,,,0.00,weatherlink.com 1.10,2013-06-13 16:48:00,
2013-06-13 12:03:00,86.2,75.0,29.83,SW,231,2.0,-999.0,69,-99.99,,,0.00,weatherlink.com 1.10,2013-06-13 17:03:00,
2013-06-13 12:18:00,87.3,75.0,29.83,SSW,197,4.0,-999.0,67,-99.99,,,0.00,weatherlink.com 1.10,2013-06-13 17:18:00,
2013-06-13 12:33:00,87.0,75.0,29.82,WSW,250,6.0,-999.0,67,-99.99,,,0.00,weatherlink.com 1.10,2013-06-13 17:33:00,
2013-06-13 12:48:00,88.1,75.0,29.82,West,259,8.0,-999.0,66,-99.99,,,0.00,weatherlink.com 1.10,2013-06-13 17:48:00,
2013-06-13 13:03:00,87.9,76.0,29.81,SW,221,5.0,-999.0,67,-99.99,,,0.00,weatherlink.com 1.10,2013-06-13 18:03:00,
2013-06-13 13:18:00,88.6,75.0,29.81,West,259,7.0,-999.0,65,-99.99,,,0.00,weatherlink.com 1.10,2013-06-13 18:18:00,
2013-06-13 13:33:00,88.6,76.0,29.80,SW,232,7.0,-999.0,66,-99.99,,,0.00,weatherlink.com 1.10,2013-06-13 18:33:00,
2013-06-13 13:48:00,89.2,76.0,29.79,WNW,289,7.0,-999.0,66,-99.99,,,0.00,weatherlink.com 1.10,2013-06-13 18:48:00,
2013-06-13 14:04:00,88.9,76.0,29.79,WSW,250,3.0,-999.0,66,-99.99,,,0.00,weatherlink.com 1.10,2013-06-13 19:04:00,
2013-06-13 14:18:00,88.6,75.0,29.79,WSW,250,10.0,-999.0,64,-99.99,,,0.00,weatherlink.com 1.10,2013-06-13 19:18:00,
2013-06-13 14:33:00,89.2,75.0,29.79,West,268,8.0,-999.0,64,-99.99,,,0.00,weatherlink.com 1.10,2013-06-13 19:33:00,
2013-06-13 14:48:00,89.7,76.0,29.78,WSW,244,0.0,-999.0,64,-99.99,,,0.00,weatherlink.com 1.10,2013-06-13 19:48:00,
2013-06-13 15:03:00,89.9,76.0,29.77,West,279,5.0,-999.0,63,-99.99,,,0.00,weatherlink.com 1.10,2013-06-13 20:03:00,
2013-06-13 15:18:00,89.9,76.0,29.76,SW,229,2.0,-999.0,64,-99.99,,,0.00,weatherlink.com 1.10,2013-06-13 20:18:00,
2013-06-13 15:33:00,88.9,75.0,29.76,WSW,252,9.0,-999.0,63,-99.99,,,0.00,weatherlink.com 1.10,2013-06-13 20:33:00,
2013-06-13 15:48:00,87.8,75.0,29.75,South,185,9.0,-999.0,65,-99.99,,,0.00,weatherlink.com 1.10,2013-06-13 20:48:00,
2013-06-13 16:03:00,87.4,76.0,29.74,SW,227,9.0,-999.0,68,-99.99,,,0.00,weatherlink.com 1.10,2013-06-13 21:03:00,
2013-06-13 16:18:00,87.5,77.0,29.75,South,184,4.0,-999.0,70,-99.99,,,0.00,weatherlink.com 1.10,2013-06-13 21:18:00,
2013-06-13 16:33:00,86.7,77.0,29.74,West,262,0.0,-999.0,73,-99.99,,,0.00,weatherlink.com 1.10,2013-06-13 21:33:00,
2013-06-13 16:49:00,86.5,77.0,29.72,WSW,251,8.0,-999.0,74,-99.99,,,0.00,weatherlink.com 1.10,2013-06-13 21:49:00,
2013-06-13 17:03:00,86.4,77.0,29.73,West,259,10.0,-999.0,74,-99.99,,,0.00,weatherlink.com 1.10,2013-06-13 22:03:00,
2013-06-13 17:18:00,85.4,77.0,29.73,SSW,213,0.0,-999.0,77,-99.99,,,0.00,weatherlink.com 1.10,2013-06-13 22:18:00,
2013-06-13 17:33:00,84.6,77.0,29.73,West,264,0.0,-999.0,78,-99.99,,,0.01,weatherlink.com 1.10,2013-06-13 22:33:00,
2013-06-13 17:48:00,80.5,75.0,29.74,NW,306,10.0,-999.0,84,-99.99,,,0.22,weatherlink.com 1.10,2013-06-13 22:48:00,
2013-06-13 18:03:00,79.7,76.0,29.73,WSW,257,0.0,-999.0,89,-99.99,,,0.22,weatherlink.com 1.10,2013-06-13 23:03:00,
2013-06-13 18:18:00,80.8,77.0,29.74,WSW,248,0.0,-999.0,89,-99.99,,,0.22,weatherlink.com 1.10,2013-06-13 23:18:00,
2013-06-13 18:33:00,80.9,77.0,29.74,SW,235,7.0,-999.0,87,-99.99,,,0.22,weatherlink.com 1.10,2013-06-13 23:33:00,
2013-06-13 18:48:00,81.4,77.0,29.74,West,273,7.0,-999.0,85,-99.99,,,0.22,weatherlink.com 1.10,2013-06-13 23:48:00,
2013-06-13 19:03:00,81.4,76.0,29.74,WNW,294,0.0,-999.0,83,-99.99,,,0.22,weatherlink.com 1.10,2013-06-14 00:03:00,
2013-06-13 19:18:00,81.0,76.0,29.74,WNW,282,0.0,-999.0,84,-99.99,,,0.22,weatherlink.com 1.10,2013-06-14 00:18:00,
2013-06-13 19:34:00,80.1,75.0,29.75,WNW,284,0.0,-999.0,85,-99.99,,,0.22,weatherlink.com 1.10,2013-06-14 00:34:00,
2013-06-13 19:48:00,79.6,75.0,29.77,West,275,0.0,-999.0,86,-99.99,,,0.22,weatherlink.com 1.10,2013-06-14 00:48:00,
2013-06-13 20:03:00,79.4,76.0,29.78,WNW,290,0.0,-999.0,88,-99.99,,,0.22,weatherlink.com 1.10,2013-06-14 01:03:00,
2013-06-13 20:18:00,79.9,75.0,29.78,NNW,338,11.0,-999.0,84,-99.99,,,0.22,weatherlink.com 1.10,2013-06-14 01:18:00,
2013-06-13 20:33:00,80.8,73.0,29.79,NE,35,11.0,-999.0,77,-99.99,,,0.22,weatherlink.com 1.10,2013-06-14 01:33:00,
2013-06-13 20:48:00,80.5,72.0,29.79,North,5,21.0,-999.0,74,-99.99,,,0.22,weatherlink.com 1.10,2013-06-14 01:48:00,
2013-06-13 21:03:00,80.1,71.0,29.79,NNW,329,11.0,-999.0,73,-99.99,,,0.22,weatherlink.com 1.10,2013-06-14 02:03:00,
2013-06-13 21:18:00,79.5,71.0,29.80,NW,326,9.0,-999.0,74,-99.99,,,0.22,weatherlink.com 1.10,2013-06-14 02:18:00,
2013-06-13 21:33:00,79.0,70.0,29.81,North,5,1.0,-999.0,75,-99.99,,,0.22,weatherlink.com 1.10,2013-06-14 02:33:00,
2013-06-13 21:48:00,78.6,70.0,29.82,NNW,339,4.0,-999.0,75,-99.99,,,0.22,weatherlink.com 1.10,2013-06-14 02:48:00,
2013-06-13 22:03:00,78.4,70.0,29.83,NNW,336,7.0,-999.0,75,-99.99,,,0.22,weatherlink.com 1.10,2013-06-14 03:03:00,
2013-06-13 22:19:00,78.0,70.0,29.84,NNW,344,10.0,-999.0,76,-99.99,,,0.22,weatherlink.com 1.10,2013-06-14 03:19:00,
2013-06-13 22:33:00,77.7,70.0,29.84,NNW,346,7.0,-999.0,76,-99.99,,,0.22,weatherlink.com 1.10,2013-06-14 03:33:00,
2013-06-13 22:48:00,77.2,69.0,29.84,NNW,329,5.0,-999.0,76,-99.99,,,0.22,weatherlink.com 1.10,2013-06-14 03:48:00,
2013-06-13 23:03:00,76.5,69.0,29.84,North,5,0.0,-999.0,78,-99.99,,,0.22,weatherlink.com 1.10,2013-06-14 04:03:00,
2013-06-13 23:18:00,76.2,69.0,29.84,NNW,342,6.0,-999.0,78,-99.99,,,0.22,weatherlink.com 1.10,2013-06-14 04:18:00,
2013-06-13 23:33:00,76.1,68.0,29.84,NW,322,8.0,-999.0,77,-99.99,,,0.22,weatherlink.com 1.10,2013-06-14 04:33:00,
2013-06-13 23:48:00,75.6,68.0,29.84,NNW,327,8.0,-999.0,78,-99.99,,,0.22,weatherlink.com 1.10,2013-06-14 04:48:00,